Paganella, Italy

1:09 AM CEST on July 25, 2016 (GMT +0200)
Paganella

Weather History for LIVP - October, 2012

Change the Weather History Date:

Monday, October 29, 2012

  Actual Average Record
Temperature  
Mean Temperature 17 °F -  
Max Temperature 19 °F 34 °F 51 °F (1999)
Min Temperature 15 °F 26 °F 15 °F (2012)
Degree Days  
Heating Degree Days 48    
Moisture  
Dew Point 13 °F    
Average Humidity 82    
Maximum Humidity 93    
Minimum Humidity 51    
Precipitation  
Precipitation 0.00 in 0.07 in - ()
Sea Level Pressure  
Sea Level Pressure 29.60 in    
Wind  
Wind Speed 19 mph ()    
Max Wind Speed 32 mph    
Max Gust Speed 48 mph    
Visibility 4.9 miles    
Events Fog , Snow    
Averages and records for this station are not official NWS values.
T = Trace of Precipitation, MM = Missing Value Source: Averaged Metar Reports

Daily Weather History Graph

Daily Weather History Graph

Search for Another Location

Airport or City:

Trip Planner

Search our weather history database for the weather conditions in past years. The results will help you decide how hot, cold, wet, or windy it might be!

Date:

Astronomy

Oct. 29, 2012 Rise Set
Actual Time 6:52 AM CET 5:05 PM CET
Civil Twilight 6:21 AM CET 5:36 PM CET
Nautical Twilight 5:46 AM CET 6:11 PM CET
Astronomical Twilight 5:11 AM CET 6:46 PM CET
Moon 4:46 PM CET (10/29) 6:28 AM CET (10/29)
Length of Visible Light 11h 15m
Length of Day
10h 12m
Full, 100% of the Moon is Illuminated
Oct 29
Full
Oct 29
Full
Nov 7
Last Quarter
Nov 13
New
Nov 20
First Quarter

Hourly Weather History & Observations

Time (CET) Temp. Windchill Dew Point Humidity Pressure Visibility Wind Dir Wind Speed Gust Speed Precip Events Conditions
12:55 AM 19.4 °F 5.0 °F 17.6 °F 93% 29.53 in 0.6 mi North 16.1 mph 27.6 mph N/A Fog Light Freezing Fog
1:00 AM 19 °F - 17 °F 86%  in 1 mi North 16.1 mph - - Fog Heavy Fog
1:55 AM 17.6 °F -0.3 °F 15.8 °F 93% 29.53 in 6.2 mi North 24.2 mph - N/A   Mostly Cloudy
2:55 AM 17.6 °F -1.3 °F 14.0 °F 86% 29.53 in 6.2 mi North 27.6 mph - N/A   Mostly Cloudy
3:55 AM 17.6 °F -1.6 °F 14.0 °F 86% 29.53 in 6.2 mi North 28.8 mph - N/A   Mostly Cloudy
4:00 AM 17 °F - 13 °F 80%  in 16 mi North 28.8 mph - -   Partly Cloudy
4:55 AM 15.8 °F -3.1 °F 12.2 °F 86% 29.53 in 6.2 mi North 25.3 mph - N/A   Mostly Cloudy
5:55 AM 15.8 °F -3.1 °F 12.2 °F 86% 29.53 in 6.2 mi North 25.3 mph - N/A   Mostly Cloudy
6:55 AM 15.8 °F -3.4 °F 12.2 °F 86% 29.53 in 0.3 mi North 26.5 mph 38.0 mph N/A Fog Light Freezing Fog
7:00 AM 15 °F - 13 °F 85%  in 0 mi North 26.5 mph - - Fog Heavy Fog
7:55 AM 15.8 °F -4.4 °F 12.2 °F 86% 29.56 in 0.5 mi North 29.9 mph 44.9 mph N/A Fog Light Freezing Fog
8:55 AM 15.8 °F -5.0 °F 12.2 °F 86% 29.56 in 6.2 mi North 32.2 mph 48.3 mph N/A Snow Blowing Snow
9:55 AM 17.6 °F -1.3 °F 14.0 °F 86% 29.56 in 6.2 mi North 27.6 mph 40.3 mph N/A Snow Blowing Snow
10:55 AM 17.6 °F 0.1 °F 14.0 °F 86% 29.59 in 6.2 mi North 23.0 mph 35.7 mph N/A   Scattered Clouds
11:55 AM 17.6 °F 2.7 °F 14.0 °F 86% 29.59 in 0.6 mi North 16.1 mph 27.6 mph N/A Fog Light Freezing Fog
12:55 PM 19.4 °F 5.0 °F 17.6 °F 93% 29.59 in 6.2 mi North 16.1 mph - N/A   Partly Cloudy
1:00 PM 19 °F - 17 °F 86%  in 31 mi North 16.1 mph - - Fog Light Fog
1:55 PM 19.4 °F 5.5 °F 15.8 °F 86% 29.59 in 6.2 mi North 15.0 mph 27.6 mph N/A   Partly Cloudy
2:55 PM 19.4 °F 5.0 °F 15.8 °F 86% 29.62 in 6.2 mi North 16.1 mph - N/A   Partly Cloudy
3:55 PM 19.4 °F 4.1 °F 15.8 °F 86% 29.62 in 6.2 mi North 18.4 mph - N/A   Partly Cloudy
4:00 PM 19 °F - 15 °F 80%  in 31 mi North 18.4 mph - -   Scattered Clouds
4:55 PM 17.6 °F 1.7 °F 14.0 °F 86% 29.62 in - North 18.4 mph - N/A   Clear
5:55 PM 17.6 °F 1.3 °F 14.0 °F 86% 29.62 in - North 19.6 mph - N/A   Clear
6:55 PM 17.6 °F 2.2 °F 12.2 °F 79% 29.65 in - North 17.3 mph - N/A   Clear
7:00 PM 17 °F - 12 °F 72%  in 25 mi North 17.3 mph - -  
7:55 PM 15.8 °F -0.2 °F 10.4 °F 79% 29.68 in - North 17.3 mph - N/A   Clear
8:55 PM 15.8 °F 0.3 °F 8.6 °F 73% 29.71 in - North 16.1 mph - N/A   Clear
9:55 PM 15.8 °F 3.4 °F 5.0 °F 62% 29.71 in - North 10.4 mph - N/A   Clear
10:00 PM 16 °F - 6 °F 51%  in 37 mi North 10.4 mph - -  
10:55 PM 15.8 °F 8.6 °F 5.0 °F 62% 29.71 in - WNW 4.6 mph - N/A   Clear
11:55 PM 17.6 °F 8.2 °F 8.6 °F 68% 29.71 in - SSW 6.9 mph - N/A   Clear